OK,56,49,689,56,2014-10-01T01:40:00,0,28072016,195365
OK,56,49,689,56,2014-10-01T01:45:00,0,28072459,195365
OK,56,49,689,56,2014-10-01T01:50:00,0,28072908,195365
OK,56,49,689,56,2014-10-01T01:55:00,0,28073355,195365
OK,56,49,689,56,2014-10-01T02:05:00,0,28074121,195365
OK,56,49,689,56,2014-10-01T02:10:00,0,28074570,195365
OK,56,49,689,56,2014-10-01T02:15:00,0,28075010,195365
OK,56,49,689,56,2014-10-01T02:20:00,0,28075459,195365
OK,56,49,689,56,2014-10-01T02:25:00,0,28075908,195365
OK,56,49,689,56,2014-10-01T02:30:00,0,28076291,195365
OK,56,49,689,56,2014-10-01T02:35:00,0,28076740,195365
OK,56,49,689,56,2014-10-01T02:40:00,0,28077189,195365
OK,56,49,689,56,2014-10-01T02:45:00,0,28077638,195365
OK,56,49,689,56,2014-10-01T02:50:00,0,28078041,195365
OK,56,49,689,56,2014-10-01T02:55:00,0,28078490,195365
OK,56,49,689,56,2014-10-01T03:00:00,0,28078935,195365
OK,56,49,689,56,2014-10-01T03:05:00,0,28079383,195365
OK,56,49,689,56,2014-10-01T03:10:00,0,28079826,195365
OK,56,49,689,56,2014-10-01T03:15:00,0,28080275,195365
OK,56,49,689,56,2014-10-01T03:20:00,0,28080609,195365
OK,56,49,689,56,2014-10-01T03:25:00,0,28081058,195365
OK,56,49,689,56,2014-10-01T03:30:00,0,28081507,195365
OK,56,49,689,56,2014-10-01T03:35:00,0,28081954,195365
OK,56,49,689,56,2014-10-01T03:40:00,0,28082403,195365
OK,56,49,689,56,2014-10-01T03:45:00,0,28082836,195365
OK,56,49,689,56,2014-10-01T03:50:00,0,28083268,195365
OK,56,49,689,56,2014-10-01T03:55:00,0,28083717,195365
OK,56,49,689,56,2014-10-01T04:00:00,0,28084166,195365
OK,56,49,689,56,2014-10-01T04:05:00,0,28084607,195365
OK,56,49,689,56,2014-10-01T04:10:00,0,28085032,195365
OK,56,49,689,56,2014-10-01T04:15:00,0,28085481,195365
OK,56,49,689,56,2014-10-01T04:20:00,0,28085926,195365
OK,56,49,689,56,2014-10-01T04:25:00,0,28086375,195365
OK,56,49,689,56,2014-10-01T04:30:00,0,28086817,195365
OK,56,49,689,56,2014-10-01T04:35:00,0,28087266,195365
OK,56,49,689,56,2014-10-01T04:40:00,0,28087711,195365
OK,56,49,689,56,2014-10-01T04:45:00,0,28088160,195365
OK,56,49,689,56,2014-10-01T04:50:00,0,28088584,195365
OK,56,49,689,56,2014-10-01T04:55:00,0,28089033,195365
OK,56,49,689,56,2014-10-01T05:00:00,0,28089463,195365
OK,56,49,689,56,2014-10-01T05:05:00,0,28089912,195365
OK,56,49,689,56,2014-10-01T05:10:00,0,28090361,195365
OK,56,49,689,56,2014-10-01T05:15:00,0,28090705,195365
OK,56,49,689,56,2014-10-01T05:20:00,0,28091154,195365
OK,56,49,689,56,2014-10-01T05:25:00,0,28091603,195365
OK,56,49,689,56,2014-10-01T05:30:00,0,28092020,195365
OK,56,49,689,56,2014-10-01T05:35:00,0,28092469,195365
OK,56,49,689,56,2014-10-01T05:40:00,0,28092913,195365
OK,56,49,689,56,2014-10-01T05:45:00,0,28093354,195365
OK,56,49,689,56,2014-10-01T05:50:00,0,28093785,195365
OK,56,49,689,56,2014-10-01T05:55:00,0,28094234,195365
OK,56,49,689,56,2014-10-01T06:00:00,0,28094645,195365
OK,56,49,689,56,2014-10-01T06:05:00,0,28095090,195365
OK,56,49,689,56,2014-10-01T06:10:00,0,28095537,195365
OK,56,49,689,56,2014-10-01T06:15:00,0,28095986,195365
OK,56,49,689,56,2014-10-01T06:20:00,0,28096399,195365
OK,56,49,689,56,2014-10-01T06:25:00,0,28096848,195365
OK,56,49,689,56,2014-10-01T06:30:00,0,28097282,195365
OK,56,49,689,56,2014-10-01T06:35:00,0,28097731,195365
OK,56,49,689,56,2014-10-01T06:40:00,0,28098180,195365
OK,56,49,689,56,2014-10-01T06:45:00,0,28098617,195365
OK,56,49,689,56,2014-10-01T06:50:00,0,28099061,195365
OK,56,49,689,56,2014-10-01T06:55:00,0,28099509,195365
OK,56,49,689,56,2014-10-01T07:00:00,0,28099852,195365
OK,56,49,689,56,2014-10-01T07:10:00,0,28100608,195365
OK,56,49,689,56,2014-10-01T07:15:00,0,28101057,195365
OK,56,49,689,56,2014-10-01T07:20:00,0,28101428,195365
OK,56,49,689,56,2014-10-01T07:25:00,0,28101877,195365
OK,56,49,689,56,2014-10-01T07:30:00,0,28102313,195365
OK,56,49,689,56,2014-10-01T07:35:00,0,28102762,195365
OK,56,49,689,56,2014-10-01T07:40:00,0,28103189,195365
OK,56,49,689,56,2014-10-01T07:45:00,0,28103636,195365
OK,56,49,689,56,2014-10-01T07:50:00,0,28104081,195365
OK,56,49,689,56,2014-10-01T07:55:00,0,28104526,195365
OK,56,49,689,56,2014-10-01T08:00:00,0,28104967,195365
OK,56,49,689,56,2014-10-01T08:05:00,0,28105412,195365
OK,56,49,689,56,2014-10-01T08:10:00,0,28105852,195365
OK,56,49,689,56,2014-10-01T08:15:00,0,28106301,195365
OK,56,49,689,56,2014-10-01T08:20:00,0,28106738,195365
OK,56,49,689,56,2014-10-01T08:25:00,0,28107144,195365
OK,56,49,689,56,2014-10-01T08:30:00,0,28107576,195365
OK,56,49,689,56,2014-10-01T08:35:00,0,28108025,195365
OK,56,49,689,56,2014-10-01T08:40:00,0,28108464,195365
OK,56,49,689,56,2014-10-01T08:45:00,0,28108913,195365
OK,56,49,689,56,2014-10-01T08:50:00,0,28109341,195365
OK,56,49,689,56,2014-10-01T08:55:00,0,28109790,195365
OK,72,38,689,72,2014-10-01T09:00:00,1,28110133,195365
OK,56,49,689,56,2014-10-01T09:05:00,0,28110582,195365
OK,56,49,689,56,2014-10-01T09:10:00,0,28111005,195365
OK,56,49,689,56,2014-10-01T09:15:00,0,28111454,195365
OK,56,49,689,56,2014-10-01T09:20:00,0,28111883,195365
OK,56,49,689,56,2014-10-01T09:25:00,0,28112332,195365
OK,56,49,689,56,2014-10-01T09:30:00,0,28112673,195365
OK,56,49,689,56,2014-10-01T09:35:00,0,28113122,195365
OK,56,49,689,56,2014-10-01T09:40:00,0,28113546,195365
OK,56,49,689,56,2014-10-01T09:45:00,0,28113995,195365
OK,56,49,689,56,2014-10-01T09:50:00,0,28114427,195365
OK,56,49,689,56,2014-10-01T09:55:00,0,28114875,195365
OK,56,49,689,56,2014-10-01T10:00:00,0,28115230,195365
OK,56,49,689,56,2014-10-01T10:05:00,0,28115679,195365
OK,56,49,689,56,2014-10-01T10:10:00,0,28116091,195365
OK,56,49,689,56,2014-10-01T10:15:00,0,28116540,195365
OK,56,49,689,56,2014-10-01T10:20:00,0,28116948,195365
OK,56,49,689,56,2014-10-01T10:25:00,0,28117397,195365
OK,56,49,689,56,2014-10-01T10:30:00,0,28117822,195365
OK,56,49,689,56,2014-10-01T10:35:00,0,28118271,195365
OK,56,49,689,56,2014-10-01T10:40:00,0,28118716,195365
OK,56,49,689,56,2014-10-01T10:45:00,0,28119163,195365
OK,56,49,689,56,2014-10-01T10:50:00,0,28119607,195365
OK,56,49,689,56,2014-10-01T10:55:00,0,28120055,195365
OK,68,40,689,68,2014-10-01T11:00:00,2,28120503,195365
OK,74,37,689,74,2014-10-01T11:05:00,1,28120952,195365
OK,74,37,689,74,2014-10-01T11:10:00,0,28121335,195365
OK,74,37,689,74,2014-10-01T11:15:00,0,28121784,195365
OK,74,37,689,74,2014-10-01T11:20:00,0,28122222,195365
OK,74,37,689,74,2014-10-01T11:25:00,0,28122671,195365
OK,74,37,689,74,2014-10-01T11:30:00,0,28123112,195365
OK,74,37,689,74,2014-10-01T11:35:00,0,28123561,195365
OK,74,37,689,74,2014-10-01T11:40:00,0,28123993,195365
OK,74,37,689,74,2014-10-01T11:45:00,0,28124442,195365
OK,74,37,689,74,2014-10-01T11:50:00,0,28124844,195365
OK,74,37,689,74,2014-10-01T11:55:00,0,28125293,195365
OK,74,37,689,74,2014-10-01T12:00:00,0,28125722,195365
OK,74,37,689,74,2014-10-01T12:05:00,0,28126171,195365
OK,74,37,689,74,2014-10-01T12:10:00,0,28126523,195365
OK,87,31,689,87,2014-10-01T12:15:00,1,28126972,195365
OK,87,31,689,87,2014-10-01T12:20:00,0,28127421,195365
OK,87,31,689,87,2014-10-01T12:25:00,0,28127870,195365
OK,87,31,689,87,2014-10-01T12:30:00,0,28128298,195365
OK,87,31,689,87,2014-10-01T12:35:00,0,28128747,195365
OK,87,31,689,87,2014-10-01T12:40:00,0,28129182,195365
OK,87,31,689,87,2014-10-01T12:45:00,0,28129631,195365
OK,87,31,689,87,2014-10-01T12:50:00,0,28130065,195365
OK,87,31,689,87,2014-10-01T12:55:00,0,28130514,195365
OK,87,31,689,87,2014-10-01T13:00:00,0,28130942,195365
OK,129,21,689,129,2014-10-01T13:05:00,2,28131391,195365
OK,151,18,689,151,2014-10-01T13:10:00,1,28131828,195365
OK,151,18,689,151,2014-10-01T13:15:00,0,28132277,195365
OK,151,18,689,151,2014-10-01T13:20:00,0,28132715,195365
OK,151,18,689,151,2014-10-01T13:25:00,0,28133162,195365
OK,151,18,689,151,2014-10-01T13:30:00,0,28133600,195365
OK,151,18,689,151,2014-10-01T13:35:00,0,28134049,195365
OK,151,18,689,151,2014-10-01T13:40:00,0,28134488,195365
OK,151,18,689,151,2014-10-01T13:45:00,0,28134937,195365
OK,151,18,689,151,2014-10-01T13:50:00,0,28135356,195365
OK,92,30,689,92,2014-10-01T13:55:00,1,28135805,195365
OK,92,30,689,92,2014-10-01T14:00:00,1,28136242,195365
OK,92,30,689,92,2014-10-01T14:05:00,0,28136691,195365
OK,92,30,689,92,2014-10-01T14:10:00,0,28137131,195365
OK,92,30,689,92,2014-10-01T14:15:00,0,28137580,195365
OK,92,30,689,92,2014-10-01T14:20:00,0,28138014,195365
OK,92,30,689,92,2014-10-01T14:25:00,0,28138463,195365
OK,92,30,689,92,2014-10-01T14:30:00,0,28138891,195365
OK,92,30,689,92,2014-10-01T14:35:00,0,28139340,195365
OK,92,30,689,92,2014-10-01T14:40:00,0,28139751,195365
OK,92,30,689,92,2014-10-01T14:45:00,0,28140200,195365
OK,92,30,689,92,2014-10-01T14:50:00,0,28140642,195365
OK,92,30,689,92,2014-10-01T14:55:00,0,28141090,195365
OK,92,30,689,92,2014-10-01T15:00:00,0,28141517,195365
OK,92,30,689,92,2014-10-01T15:05:00,0,28141966,195365
OK,92,30,689,92,2014-10-01T15:10:00,0,28142394,195365
OK,92,30,689,92,2014-10-01T15:15:00,0,28142843,195365
OK,92,30,689,92,2014-10-01T15:20:00,0,28143270,195365
OK,92,30,689,92,2014-10-01T15:25:00,0,28143719,195365
OK,92,30,689,92,2014-10-01T15:30:00,0,28144167,195365
OK,69,40,689,69,2014-10-01T15:35:00,2,28144616,195365
OK,69,40,689,69,2014-10-01T15:40:00,0,28145037,195365
OK,69,40,689,69,2014-10-01T15:45:00,0,28145451,195365
OK,69,40,689,69,2014-10-01T15:50:00,0,28145900,195365
OK,69,40,689,69,2014-10-01T15:55:00,0,28146349,195365
OK,76,36,689,76,2014-10-01T16:00:00,2,28146798,195365
OK,69,40,689,69,2014-10-01T16:05:00,0,28147206,195365
OK,69,40,689,69,2014-10-01T16:10:00,0,28147650,195365
OK,69,40,689,69,2014-10-01T16:15:00,0,28148099,195365
OK,69,40,689,69,2014-10-01T16:20:00,0,28148500,195365
OK,69,40,689,69,2014-10-01T16:25:00,0,28148949,195365
OK,69,40,689,69,2014-10-01T16:30:00,0,28149388,195365
OK,69,40,689,69,2014-10-01T16:35:00,0,28149837,195365
OK,69,40,689,69,2014-10-01T16:40:00,0,28150263,195365
OK,69,40,689,69,2014-10-01T16:45:00,0,28150712,195365
OK,69,40,689,69,2014-10-01T16:50:00,0,28151130,195365
OK,69,40,689,69,2014-10-01T16:55:00,0,28151579,195365
OK,69,40,689,69,2014-10-01T17:05:00,0,28152028,195365
OK,69,40,689,69,2014-10-01T17:10:00,0,28152477,195365
OK,69,40,689,69,2014-10-01T17:15:00,0,28152923,195365
OK,69,40,689,69,2014-10-01T17:20:00,0,28153370,195365
OK,128,21,689,128,2014-10-01T17:25:00,1,28153819,195365
OK,128,21,689,128,2014-10-01T17:30:00,1,28154229,195365
OK,128,21,689,128,2014-10-01T17:35:00,0,28154678,195365
OK,128,21,689,128,2014-10-01T17:40:00,0,28155120,195365
OK,128,21,689,128,2014-10-01T17:45:00,0,28155568,195365
OK,128,21,689,128,2014-10-01T17:50:00,0,28155986,195365
OK,128,21,689,128,2014-10-01T17:55:00,0,28156435,195365
OK,128,21,689,128,2014-10-01T18:00:00,0,28156883,195365
OK,128,21,689,128,2014-10-01T18:05:00,0,28157322,195365
OK,128,21,689,128,2014-10-01T18:10:00,0,28157752,195365
OK,128,21,689,128,2014-10-01T18:15:00,0,28158200,195365
OK,128,21,689,128,2014-10-01T18:20:00,0,28158644,195365
OK,128,21,689,128,2014-10-01T18:25:00,0,28159089,195365
OK,128,21,689,128,2014-10-01T18:35:00,0,28159871,195365
OK,128,21,689,128,2014-10-01T18:40:00,0,28160320,195365
OK,128,21,689,128,2014-10-01T18:45:00,0,28160769,195365
OK,128,21,689,128,2014-10-01T18:50:00,0,28161207,195365
OK,128,21,689,128,2014-10-01T18:55:00,0,28161656,195365
OK,128,21,689,128,2014-10-01T19:00:00,0,28162073,195365
OK,128,21,689,128,2014-10-01T19:05:00,0,28162522,195365
OK,128,21,689,128,2014-10-01T19:10:00,0,28162916,195365
OK,128,21,689,128,2014-10-01T19:15:00,0,28163355,195365
OK,128,21,689,128,2014-10-01T19:20:00,0,28163803,195365
OK,128,21,689,128,2014-10-01T19:25:00,0,28164252,195365
OK,128,21,689,128,2014-10-01T19:30:00,0,28164683,195365
OK,128,21,689,128,2014-10-01T19:35:00,0,28165132,195365
OK,128,21,689,128,2014-10-01T19:40:00,0,28165557,195365
OK,128,21,689,128,2014-10-01T19:45:00,0,28166005,195365
OK,128,21,689,128,2014-10-01T19:55:00,0,28166808,195365
OK,128,21,689,128,2014-10-01T20:00:00,0,28167257,195365
OK,128,21,689,128,2014-10-01T20:05:00,0,28167686,195365
OK,128,21,689,128,2014-10-01T20:10:00,0,28168119,195365
OK,128,21,689,128,2014-10-01T20:15:00,0,28168568,195365
OK,128,21,689,128,2014-10-01T20:20:00,0,28169013,195365
OK,128,21,689,128,2014-10-01T20:25:00,0,28169462,195365
OK,128,21,689,128,2014-10-01T20:30:00,0,28169910,195365
OK,128,21,689,128,2014-10-01T20:35:00,0,28170336,195365
OK,128,21,689,128,2014-10-01T20:40:00,0,28170781,195365
OK,128,21,689,128,2014-10-01T20:45:00,0,28171229,195365
OK,128,21,689,128,2014-10-01T20:50:00,0,28171666,195365
OK,128,21,689,128,2014-10-01T20:55:00,0,28172112,195365
OK,128,21,689,128,2014-10-01T21:00:00,0,28172560,195365
OK,128,21,689,128,2014-10-01T21:05:00,0,28173006,195365
OK,128,21,689,128,2014-10-01T21:10:00,0,28173452,195365
OK,128,21,689,128,2014-10-01T21:15:00,0,28173901,195365
OK,128,21,689,128,2014-10-01T21:20:00,0,28174342,195365
OK,128,21,689,128,2014-10-01T21:25:00,0,28174791,195365
OK,128,21,689,128,2014-10-01T21:35:00,0,28175613,195365
OK,128,21,689,128,2014-10-01T21:40:00,0,28176062,195365
OK,128,21,689,128,2014-10-01T21:45:00,0,28176511,195365
OK,128,21,689,128,2014-10-01T21:50:00,0,28176960,195365
OK,128,21,689,128,2014-10-01T21:55:00,0,28177316,195365
OK,128,21,689,128,2014-10-01T22:00:00,0,28177756,195365
OK,128,21,689,128,2014-10-01T22:05:00,0,28178202,195365
OK,128,21,689,128,2014-10-01T22:10:00,0,28178651,195365
OK,128,21,689,128,2014-10-01T22:15:00,0,28179098,195365
OK,128,21,689,128,2014-10-01T22:20:00,0,28179532,195365
OK,128,21,689,128,2014-10-01T22:25:00,0,28179975,195365
OK,128,21,689,128,2014-10-01T22:30:00,0,28180422,195365
OK,128,21,689,128,2014-10-01T22:35:00,0,28180820,195365
OK,128,21,689,128,2014-10-01T22:40:00,0,28181269,195365
OK,128,21,689,128,2014-10-01T22:45:00,0,28181693,195365
OK,128,21,689,128,2014-10-01T22:50:00,0,28182141,195365
OK,128,21,689,128,2014-10-01T22:55:00,0,28182588,195365
OK,128,21,689,128,2014-10-01T23:00:00,0,28183037,195365
OK,128,21,689,128,2014-10-01T23:05:00,0,28183454,195365
OK,128,21,689,128,2014-10-01T23:10:00,0,28183887,195365
OK,128,21,689,128,2014-10-01T23:15:00,0,28184332,195365
OK,128,21,689,128,2014-10-01T23:20:00,0,28184781,195365
OK,128,21,689,128,2014-10-01T23:25:00,0,28185216,195365
OK,128,21,689,128,2014-10-01T23:30:00,0,28185664,195365
OK,128,21,689,128,2014-10-01T23:40:00,0,28186487,195365
OK,128,21,689,128,2014-10-01T23:45:00,0,28187327,195365
OK,128,21,689,128,2014-10-01T23:55:00,0,28187776,195365
OK,128,21,689,128,2014-10-02T00:00:00,0,28188658,195365
OK,128,21,689,128,2014-10-02T00:10:00,0,28189102,195365
OK,128,21,689,128,2014-10-02T00:15:00,0,28189551,195365
OK,128,21,689,128,2014-10-02T00:20:00,0,28189973,195365
OK,128,21,689,128,2014-10-02T00:25:00,0,28190417,195365
OK,128,21,689,128,2014-10-02T00:30:00,0,28190775,195365
OK,128,21,689,128,2014-10-02T00:35:00,0,28191224,195365
OK,128,21,689,128,2014-10-02T00:45:00,0,28191979,195365
OK,128,21,689,128,2014-10-02T00:50:00,0,28192428,195365
OK,128,21,689,128,2014-10-02T00:55:00,0,28192861,195365
OK,128,21,689,128,2014-10-02T01:00:00,0,28193280,195365
OK,128,21,689,128,2014-10-02T01:05:00,0,28193672,195365
OK,128,21,689,128,2014-10-02T01:10:00,0,28194121,195365
OK,128,21,689,128,2014-10-02T01:15:00,0,28194570,195365
OK,128,21,689,128,2014-10-02T01:20:00,0,28195009,195365
OK,128,21,689,128,2014-10-02T01:25:00,0,28195255,195365
OK,128,21,689,128,2014-10-02T01:30:00,0,28195704,195365
OK,128,21,689,128,2014-10-02T01:35:00,0,28196153,195365
OK,128,21,689,128,2014-10-02T01:40:00,0,28196437,195365
OK,128,21,689,128,2014-10-02T01:45:00,0,28196886,195365
OK,128,21,689,128,2014-10-02T01:50:00,0,28197309,195365
OK,128,21,689,128,2014-10-02T01:55:00,0,28197758,195365
OK,128,21,689,128,2014-10-02T02:00:00,0,28198206,195365
OK,128,21,689,128,2014-10-02T02:05:00,0,28198654,195365
OK,128,21,689,128,2014-10-02T02:10:00,0,28199103,195365
OK,128,21,689,128,2014-10-02T02:15:00,0,28199475,195365
OK,128,21,689,128,2014-10-02T02:20:00,0,28199917,195365
OK,128,21,689,128,2014-10-02T02:25:00,0,28200359,195365
OK,128,21,689,128,2014-10-02T02:30:00,0,28200802,195365
OK,128,21,689,128,2014-10-02T02:35:00,0,28201251,195365
OK,128,21,689,128,2014-10-02T02:45:00,0,28201682,195365
OK,128,21,689,128,2014-10-02T02:50:00,0,28202131,195365
OK,128,21,689,128,2014-10-02T02:55:00,0,28202580,195365
OK,128,21,689,128,2014-10-02T03:00:00,0,28203022,195365
OK,128,21,689,128,2014-10-02T03:05:00,0,28203470,195365
OK,128,21,689,128,2014-10-02T03:15:00,0,28203905,195365
OK,128,21,689,128,2014-10-02T03:30:00,0,28204354,195365
OK,128,21,689,128,2014-10-02T03:35:00,0,28204803,195365
OK,128,21,689,128,2014-10-02T03:40:00,0,28205252,195365
OK,128,21,689,128,2014-10-02T03:45:00,0,28205680,195365
OK,128,21,689,128,2014-10-02T03:50:00,0,28206107,195365
OK,128,21,689,128,2014-10-02T03:55:00,0,28206510,195365
OK,128,21,689,128,2014-10-02T04:00:00,0,28206959,195365
OK,128,21,689,128,2014-10-02T04:05:00,0,28207408,195365
OK,128,21,689,128,2014-10-02T04:10:00,0,28207827,195365
OK,128,21,689,128,2014-10-02T04:15:00,0,28208276,195365
OK,128,21,689,128,2014-10-02T04:20:00,0,28208703,195365
OK,128,21,689,128,2014-10-02T04:25:00,0,28209152,195365
OK,128,21,689,128,2014-10-02T04:30:00,0,28209590,195365
OK,128,21,689,128,2014-10-02T04:35:00,0,28210039,195365
OK,128,21,689,128,2014-10-02T04:40:00,0,28210462,195365
OK,128,21,689,128,2014-10-02T04:45:00,0,28210911,195365
OK,128,21,689,128,2014-10-02T04:50:00,0,28211336,195365
OK,128,21,689,128,2014-10-02T04:55:00,0,28211780,195365
OK,128,21,689,128,2014-10-02T05:00:00,0,28212158,195365
OK,128,21,689,128,2014-10-02T05:05:00,0,28212607,195365
OK,128,21,689,128,2014-10-02T05:10:00,0,28213036,195365
OK,128,21,689,128,2014-10-02T05:15:00,0,28213485,195365
OK,128,21,689,128,2014-10-02T05:20:00,0,28213923,195365
OK,128,21,689,128,2014-10-02T05:25:00,0,28214372,195365
OK,128,21,689,128,2014-10-02T05:30:00,0,28214785,195365
OK,128,21,689,128,2014-10-02T05:35:00,0,28215234,195365
OK,128,21,689,128,2014-10-02T05:40:00,0,28215650,195365
OK,128,21,689,128,2014-10-02T05:45:00,0,28216099,195365
OK,128,21,689,128,2014-10-02T05:50:00,0,28216438,195365
OK,128,21,689,128,2014-10-02T05:55:00,0,28216878,195365
OK,128,21,689,128,2014-10-02T06:00:00,0,28217325,195365
OK,128,21,689,128,2014-10-02T06:05:00,0,28217774,195365
OK,128,21,689,128,2014-10-02T06:10:00,0,28218213,195365
OK,128,21,689,128,2014-10-02T06:15:00,0,28218662,195365
OK,90,30,689,90,2014-10-02T06:20:00,2,28219082,195365
OK,139,19,689,139,2014-10-02T06:25:00,2,28219531,195365
OK,191,14,689,191,2014-10-02T06:30:00,1,28219904,195365
OK,60,46,689,60,2014-10-02T06:35:00,1,28220353,195365
OK,60,46,689,60,2014-10-02T06:40:00,0,28220787,195365
OK,60,46,689,60,2014-10-02T06:45:00,0,28221236,195365
OK,81,34,689,81,2014-10-02T07:00:00,1,28221903,195365
OK,81,34,689,81,2014-10-02T07:05:00,1,28222048,195365
OK,81,34,689,81,2014-10-02T07:10:00,0,28222497,195365
OK,81,34,689,81,2014-10-02T07:15:00,0,28222946,195365
OK,81,34,689,81,2014-10-02T07:20:00,0,28223377,195365
OK,81,34,689,81,2014-10-02T07:25:00,0,28223812,195365
OK,81,34,689,81,2014-10-02T07:35:00,0,28224615,195365
OK,81,34,689,81,2014-10-02T07:40:00,0,28225064,195365
OK,81,34,689,81,2014-10-02T07:45:00,0,28225474,195365
OK,81,34,689,81,2014-10-02T07:50:00,0,28225835,195365
OK,81,34,689,81,2014-10-02T07:55:00,0,28226284,195365
OK,81,34,689,81,2014-10-02T08:00:00,0,28226725,195365
OK,81,34,689,81,2014-10-02T08:05:00,0,28227174,195365
OK,81,34,689,81,2014-10-02T08:10:00,0,28227589,195365
OK,81,34,689,81,2014-10-02T08:15:00,0,28228038,195365
OK,81,34,689,81,2014-10-02T08:20:00,0,28228397,195365
OK,81,34,689,81,2014-10-02T08:25:00,0,28228846,195365
OK,81,34,689,81,2014-10-02T08:30:00,0,28229256,195365
OK,81,34,689,81,2014-10-02T08:35:00,0,28229705,195365
OK,81,34,689,81,2014-10-02T08:40:00,0,28230055,195365
OK,81,34,689,81,2014-10-02T08:45:00,0,28230504,195365
OK,81,34,689,81,2014-10-02T08:50:00,0,28230870,195365
OK,81,34,689,81,2014-10-02T08:55:00,0,28231317,195365
OK,62,44,689,62,2014-10-02T09:00:00,2,28231742,195365
OK,62,44,689,62,2014-10-02T09:05:00,0,28232184,195365
OK,62,44,689,62,2014-10-02T09:15:00,0,28232533,195365
OK,62,44,689,62,2014-10-02T09:20:00,0,28232982,195365
OK,62,44,689,62,2014-10-02T09:25:00,0,28233431,195365
OK,62,44,689,62,2014-10-02T09:30:00,0,28233855,195365
OK,62,44,689,62,2014-10-02T09:40:00,0,28234637,195365
OK,62,44,689,62,2014-10-02T09:45:00,0,28235086,195365
OK,62,44,689,62,2014-10-02T09:50:00,0,28235513,195365
OK,87,31,689,87,2014-10-02T09:55:00,0,28235962,195365
OK,87,31,689,87,2014-10-02T10:00:00,0,28236405,195365
OK,87,31,689,87,2014-10-02T10:05:00,0,28236852,195365
OK,87,31,689,87,2014-10-02T10:10:00,0,28237254,195365
OK,87,31,689,87,2014-10-02T10:15:00,0,28237702,195365
OK,87,31,689,87,2014-10-02T10:20:00,0,28238151,195365
OK,87,31,689,87,2014-10-02T10:25:00,0,28238598,195365
OK,87,31,689,87,2014-10-02T10:30:00,0,28239039,195365
OK,87,31,689,87,2014-10-02T10:35:00,0,28239488,195365
OK,87,31,689,87,2014-10-02T10:40:00,0,28239918,195365
OK,87,31,689,87,2014-10-02T10:45:00,0,28240367,195365
OK,87,31,689,87,2014-10-02T10:50:00,0,28240811,195365
OK,87,31,689,87,2014-10-02T10:55:00,0,28241260,195365
OK,87,31,689,87,2014-10-02T11:00:00,0,28241692,195365
OK,87,31,689,87,2014-10-02T11:05:00,0,28242140,195365
OK,87,31,689,87,2014-10-02T11:10:00,0,28242536,195365
OK,87,31,689,87,2014-10-02T11:15:00,0,28242985,195365
OK,87,31,689,87,2014-10-02T11:20:00,0,28243434,195365
OK,87,31,689,87,2014-10-02T11:25:00,0,28243759,195365
OK,87,31,689,87,2014-10-02T11:30:00,0,28244197,195365
OK,87,31,689,87,2014-10-02T11:35:00,0,28244626,195365
OK,87,31,689,87,2014-10-02T11:40:00,0,28245075,195365
OK,87,31,689,87,2014-10-02T11:45:00,0,28245524,195365
OK,87,31,689,87,2014-10-02T11:50:00,0,28245930,195365
OK,87,31,689,87,2014-10-02T11:55:00,0,28246379,195365
OK,49,56,689,49,2014-10-02T12:00:00,1,28246816,195365
OK,49,56,689,49,2014-10-02T12:05:00,1,28247264,195365
OK,49,56,689,49,2014-10-02T12:10:00,0,28247711,195365
OK,92,30,689,92,2014-10-02T12:15:00,1,28248141,195365
OK,92,30,689,92,2014-10-02T12:20:00,0,28248590,195365
OK,92,30,689,92,2014-10-02T12:25:00,0,28249037,195365
OK,92,30,689,92,2014-10-02T12:30:00,0,28249465,195365
OK,92,30,689,92,2014-10-02T12:35:00,0,28249909,195365
OK,92,30,689,92,2014-10-02T12:40:00,0,28250293,195365
OK,92,30,689,92,2014-10-02T12:45:00,0,28250726,195365
OK,87,31,689,87,2014-10-02T13:20:00,1,28251586,195365
OK,87,31,689,87,2014-10-02T13:30:00,0,28252051,195365
OK,87,31,689,87,2014-10-02T13:35:00,0,28252188,195365
OK,87,31,689,87,2014-10-02T13:40:00,0,28252635,195365
OK,87,31,689,87,2014-10-02T13:45:00,0,28253077,195365
OK,87,31,689,87,2014-10-02T13:50:00,0,28253494,195365
OK,86,32,689,86,2014-10-02T13:55:00,1,28253943,195365
OK,43,64,689,43,2014-10-02T14:10:00,1,28254674,195365
OK,43,64,689,43,2014-10-02T14:15:00,1,28254797,195365
OK,43,64,689,43,2014-10-02T14:20:00,0,28255246,195365
OK,43,64,689,43,2014-10-02T14:25:00,0,28255695,195365
OK,43,64,689,43,2014-10-02T14:30:00,0,28256123,195365
OK,43,64,689,43,2014-10-02T14:35:00,0,28256572,195365
OK,43,64,689,43,2014-10-02T14:40:00,0,28257000,195365
OK,43,64,689,43,2014-10-02T14:45:00,0,28257449,195365
OK,43,64,689,43,2014-10-02T14:50:00,0,28257890,195365
OK,43,64,689,43,2014-10-02T14:55:00,0,28258338,195365
OK,43,64,689,43,2014-10-02T15:00:00,0,28258771,195365
OK,43,64,689,43,2014-10-02T15:05:00,0,28259217,195365
OK,43,64,689,43,2014-10-02T15:10:00,0,28259665,195365
OK,43,64,689,43,2014-10-02T15:15:00,0,28260113,195365
OK,43,64,689,43,2014-10-02T15:20:00,0,28260546,195365
OK,43,64,689,43,2014-10-02T15:25:00,0,28260994,195365
OK,43,64,689,43,2014-10-02T15:35:00,0,28261798,195365
OK,43,64,689,43,2014-10-02T15:40:00,0,28262247,195365
OK,43,64,689,43,2014-10-02T15:45:00,0,28262694,195365
OK,43,64,689,43,2014-10-02T15:50:00,0,28263140,195365